Terminal Aerodrome Forecast
Issued by NWS Raleigh/Durham, NC

Current Version | Previous Version | Text Only | Print | Product List | Glossary On
Versions: 1 2 3 4 5 6 7 8 9 10 11 12 13 14 15 16 17 18
000 FTUS42 KRAH 312320 TAFRDU TAF KRDU 312320Z 0100/0124 VRB05KT P6SM BKN050 FM011200 04015G25KT P6SM OVC035 FM011600 01020G30KT P6SM BKN035=

USA.gov is the U.S. government's official web portal to all federal, state and local government web resources and services.